Scarborough,

3:09 PM AST on June 26, 2017 (GMT -0400)
Scarborough

Weather History for TTCP - November, 2013

Change the Weather History Date:

Thursday, November 14, 2013

  Actual Average Record
Temperature  
Mean Temperature 78 °F -  
Max Temperature 84 °F 84 °F 91 °F (2012)
Min Temperature 73 °F 75 °F 73 °F (2005)
Cooling Degree Days 14    
Growing Degree Days 28 (Base 50)    
Moisture  
Dew Point 74 °F    
Average Humidity 86    
Maximum Humidity 94    
Minimum Humidity 74    
Precipitation  
Precipitation 0.00 in - - ()
Sea Level Pressure  
Sea Level Pressure 29.91 in    
Wind  
Wind Speed 8 mph ()    
Max Wind Speed 20 mph    
Max Gust Speed 39 mph    
Visibility 5.5 miles    
Events Rain    
Averages and records for this station are not official NWS values.
T = Trace of Precipitation, MM = Missing Value Source: Averaged Metar Reports

Daily Weather History Graph

Daily Weather History Graph

Search for Another Location

Airport or City:

Trip Planner

Search our weather history database for the weather conditions in past years. The results will help you decide how hot, cold, wet, or windy it might be!

Date:

Astronomy

Nov. 14, 2013 Rise Set
Actual Time 5:59 AM AST 5:36 PM AST
Civil Twilight 5:37 AM AST 5:58 PM AST
Nautical Twilight 5:11 AM AST 6:24 PM AST
Astronomical Twilight 4:45 AM AST 6:49 PM AST
Moon 3:30 PM AST (11/14) 3:18 AM AST (11/14)
Length of Visible Light 12h 21m
Length of Day
11h 37m
Waxing Gibbous, 91% of the Moon is Illuminated
Nov 14
Waxing Gibbous
Nov 17
Full
Nov 25
Last Quarter
Dec 2
New
Dec 9
First Quarter

Hourly Weather History & Observations

Time (AST) Temp. Heat Index Dew Point Humidity Pressure Visibility Wind Dir Wind Speed Gust Speed Precip Events Conditions
12:00 AM 80.6 °F 85.4 °F 73.4 °F 79% 29.89 in 6.2 mi East 11.5 mph - N/A   Mostly Cloudy
1:00 AM 80.6 °F 85.4 °F 73.4 °F 79% 29.89 in 6.2 mi East 11.5 mph - N/A   Mostly Cloudy
2:00 AM 78.8 °F - 75.2 °F 89% 29.89 in 6.2 mi East 12.7 mph - N/A Rain Light Rain Showers
3:00 AM 77.0 °F - 73.4 °F 89% 29.86 in 6.2 mi Calm Calm - N/A   Mostly Cloudy
6:00 AM 77.0 °F - 73.4 °F 89% 29.89 in 5.0 mi Calm Calm - N/A   Mostly Cloudy
6:25 AM 77.0 °F - 75.2 °F 94% 29.92 in 1.2 mi East 11.5 mph 39.1 mph N/A Rain Heavy Rain Showers
7:00 AM 75.2 °F - 73.4 °F 94% 29.95 in 1.2 mi SE 19.6 mph - N/A Rain Heavy Rain Showers
8:00 AM 73.4 °F - 71.6 °F 94% 29.95 in 3.7 mi East 11.5 mph - N/A Rain Rain
9:00 AM 77.0 °F - 73.4 °F 89% 29.98 in 6.2 mi Calm Calm - N/A Rain Light Rain
10:00 AM 78.8 °F - 75.2 °F 89% 29.98 in 3.7 mi East 16.1 mph - N/A Rain Light Rain Showers
11:00 AM 77.0 °F - 73.4 °F 89% 29.95 in 6.2 mi East 9.2 mph - N/A Rain Light Rain
12:00 PM 78.8 °F - 73.4 °F 83% 29.92 in 6.2 mi East 3.5 mph - N/A   Mostly Cloudy
1:00 PM 82.4 °F 88.2 °F 73.4 °F 74% 29.92 in 6.2 mi East 13.8 mph - N/A   Mostly Cloudy
2:00 PM 84.2 °F 92.3 °F 75.2 °F 74% 29.89 in 6.2 mi East 16.1 mph - N/A   Mostly Cloudy
3:00 PM 80.6 °F 86.2 °F 75.2 °F 84% 29.86 in 6.2 mi East 16.1 mph - N/A   Mostly Cloudy
4:00 PM 82.4 °F - - N/A% 29.86 in 6.2 mi East 15.0 mph - N/A   Mostly Cloudy
5:00 PM 82.4 °F 88.2 °F 73.4 °F 74% 29.86 in 6.2 mi East 9.2 mph - N/A   Scattered Clouds
6:00 PM 78.8 °F - 73.4 °F 83% 29.86 in 6.2 mi Calm Calm - N/A   Scattered Clouds
7:00 PM 78.8 °F - 73.4 °F 83% 29.89 in 6.2 mi ENE 5.8 mph - N/A   Scattered Clouds
8:00 PM 78.8 °F - 77.0 °F 94% 29.89 in 6.2 mi Calm Calm - N/A   Scattered Clouds
9:00 PM 78.8 °F - 73.4 °F 83% 29.92 in 6.2 mi Calm Calm - N/A   Scattered Clouds
10:00 PM 77.0 °F - 73.4 °F 89% 29.92 in 6.2 mi Calm Calm - N/A   Scattered Clouds
11:00 PM 77.0 °F - 73.4 °F 89% 29.92 in 6.2 mi Calm Calm - N/A   Scattered Clouds